Regional Weather Roundup
Issued by NWS Grand Forks, ND

Home | Current Version | Previous Version | Text Only | Print | Product List | Glossary Off
Versions: 1 2 3 4 5 6 7 8 9 10 11 12 13 14 15 16 17 18 19 20 21 22 23 24 25 26 27 28 29 30 31 32 33 34 35 36 37 38 39 40 41 42 43 44 45 46 47 48 49 50

000
ASUS43 KFGF 031510
RWRFGF
PRAIRIE TO PINES  WEATHER ROUNDUP
NATIONAL WEATHER SERVICE EASTERN NORTH DAKOTA/GRAND FORKS ND
1000 AM CDT SUN MAY 03 2015

 **SATELLITE DATA USED TO AUGMENT SKY COVER AT AUTOMATED STATIONS**
 *****  WEATHER ACROSS EASTERN NORTH DAKOTA  *****

CITY           SKY/WX    TMP DP  RH WIND       PRES   REMARKS
GRAND FORKS    CLOUDY    56  39  53 NW15G24   29.87R
GRAND FRKS AFB CLOUDY    55  38  53 NW13      29.88R
GRAND FRKS NWS   N/A     54 N/A N/A NW24        N/A
DEVILS LAKE    PTSUNNY   54  34  47 NW18      29.91R
FARGO          CLOUDY    60  41  49 N17G23    29.86R
WAHPETON ARPT  MOSUNNY   59  43  55 N22       29.83R
$$

 ***** WEATHER ACROSS CENTRAL AND WESTERN NORTH DAKOTA  *****

CITY           SKY/WX    TMP DP  RH WIND       PRES   REMARKS
BISMARCK       CLOUDY    54  35  48 N17G24    29.98R
MINOT          SUNNY     55  30  38 NW16      29.96R
JAMESTOWN      CLOUDY    54  36  50 N26G32    29.89R
MINOT AFB      SUNNY     55  31  40 NW21      29.95R
GARRISON         N/A     54  36  50 NW12      29.98R
WILLISTON      SUNNY     53  25  33 NW12      30.02R
DICKINSON      PTSUNNY   54  33  45 N12       29.99R
HETTINGER      CLOUDY    51  36  56 N12       29.99R
$$

 *****  OTHER AIRPORT OBSERVATIONS IN OUR AREA  *****

CITY           SKY/WX    TMP DP  RH WIND       PRES   REMARKS
WALHALLA       FAIR      57  32  38 NW23G33   29.85S
GRAFTON AIRPOR FAIR      55  39  54 NW16G23   29.87R
VALLEY CITY AR FAIR      55  37  50 N23G31    29.88S
CANDO          FAIR      57  30  35 NW16G22   29.91R
CAVALIER APRT  FAIR      57  36  44 NW17G24   29.85S
GWINNER        SUNNY     63  37  39 N24G33    29.88R
ROLLA          NOT AVBL
 ***** THE ABOVE OBSERVATIONS ARE NON NWS ARE NOT QUALITY
       CONTROLLED AND MAY MIS-REPORT RAIN FOR SNOW...
$$

  *****  WEATHER ACROSS NORTHERN MINNESOTA  *****

CITY           SKY/WX    TMP DP  RH WIND       PRES   REMARKS
FLAG ISLAND    MOSUNNY   50  41  71 NW7       29.77R
WARROAD        PTSUNNY   55  43  62 W8        29.80R
ROSEAU         PTSUNNY   55  43  62 NW9       29.81R
HALLOCK        PTSUNNY   57  39  51 NW14      29.84R
THF RVR FALLS  CLOUDY    55  39  54 NW12      29.85R
BAUDETTE       MOSUNNY   56  40  55 NW17      29.77R
WASKISH        PTSUNNY   55  48  76 SW12      29.79R
CROOKSTON      CLOUDY    55  41  58 NW15      29.87R
$$
  *****  WEATHER ACROSS CENTRAL AND WEST MINNESOTA  *****

CITY           SKY/WX    TMP DP  RH WIND       PRES   REMARKS
FOSSTON        NOT AVBL
BEMIDJI        MOSUNNY   64  39  39 W17       29.81R
PARK RAPIDS    MOSUNNY   69  40  34 N16G22    29.79R
ELBOW LAKE     PTSUNNY   63  55  75 NW7       29.80R
WADENA         MOSUNNY   66  48  52 N12G20    29.77S
DETROIT LAKES  PTSUNNY   59  46  63 N18       29.85R
MOORHEAD       CLOUDY    59  43  55 N18       29.87R
FERGUS FALLS   NOT AVBL
MORRIS MN      SUNNY     64  55  72 N9        29.78R
STAPLES        MOSUNNY   66  52  59 NW10      29.78R
$$
  *****  WEATHER ELSEWHERE ACROSS MINNESOTA  *****

CITY           SKY/WX    TMP DP  RH WIND       PRES   REMARKS
DULUTH         SUNNY     70  51  51 W16G22    29.74S
INTRNTL FALLS  MOSUNNY   62  46  55 W9        29.72S
ELY            MOSUNNY   66  46  48 W8        29.71F
CLOQUET        SUNNY     70  50  49 W6        29.74S
WHEATON        SUNNY     63  48  59 NW15G24   29.83R
BRAINERD       SUNNY     67  53  61 NW7       29.77S
HIBBING        MOSUNNY   70  46  42 NW13      29.74R
ALEXANDRIA     SUNNY     64  55  72 W7        29.81R
SAINT CLOUD    PTSUNNY   61  54  77 S8        29.76S
MINNEAPOLIS    PTSUNNY   64  52  64 S13       29.77F
$$

  *****  WEATHER ACROSS SOUTH DAKOTA  *****

CITY           SKY/WX    TMP DP  RH WIND       PRES   REMARKS
SIOUX FALLS    MOSUNNY   69  54  58 S7        29.75S
BROOKINGS      SUNNY     68  55  64 N8        29.77S
WATERTOWN      SUNNY     67  54  63 N21       29.79R
HURON          SUNNY     68  54  60 N20G29    29.75R
SISSETON         N/A     67  43  41 N25       29.82R
ABERDEEN       SUNNY     64  38  38 N21G38    29.85R
MITCHELL       SUNNY     68  54  60 VRB3      29.75R
PIERRE         MOSUNNY   63  35  35 N33G40    29.85R
MOBRIDGE       MOSUNNY   61  38  42 N22G30    29.88R
RAPID CITY     SUNNY     58  37  45 N18       29.97R
$$

  *****  SOME WEATHER IN NEARBY STATES *****

CITY           SKY/WX    TMP DP  RH WIND       PRES   REMARKS
GLASGOW MT     MOSUNNY   47  33  58 SW7       30.05R
GREAT FALLS MT MOSUNNY   45  29  53 CALM      30.03S
CHEYENNE WY    MOSUNNY   63  33  32 NW15G22   29.99R
SCOTTSBLUFF NE SUNNY     66  39  37 N14       29.91R
OMAHA NE       PTSUNNY   70  59  68 S13       29.75S
DES MOINES IA  PTSUNNY   71  57  61 S15       29.81R
DAVENPORT IA   CLOUDY    66  52  60 S17       29.91F
CHICAGO IL     PTSUNNY   69  46  43 SW12      29.97S
EAU CLAIRE WI  MOSUNNY   68  51  54 S10       29.79F
LA CROSSE WI   CLOUDY    69  51  52 S13       29.82F
$$

  *****  SOME NATIONAL WEATHER *****

CITY           SKY/WX    TMP DP  RH WIND       PRES   REMARKS
LA GUARDIA NY  MOSUNNY   66  41  40 N3        30.09R
RALEIGH NC     MOSUNNY   71  51  49 VRB5      30.21R
ATLANTA GA     MOSUNNY   73  50  44 VRB3      30.19R
NEW ORLEANS LA MOSUNNY   77  60  55 S5        30.12S
OKLAHOMA CITY  CLOUDY    66  56  70 S16       29.95S
ALBUQUERQUE NM MOSUNNY   62  38  40 N6        30.08R
SALT LAKE CITY PTSUNNY   66  39  37 S14       29.90S
LOS ANGELES CA PTSUNNY   61  53  75 E5        29.92R
BOISE ID       MOSUNNY   53  33  46 W5        29.89R
SEATTLE WA     SUNNY     50  39  66 CALM      30.02R
$$

*** WEATHER ACROSS MANITOBA...SASKATCHEWAN AND ONTARIO ***
                ***ONTARIO***

CITY           SKY/WX    TMP DP  RH WIND       PRES   REMARKS
GERALDTON      CLOUDY    61  43  51 SW10      29.63F
THUNDER BAY    PTSUNNY   55  46  71 E3        29.68F
SIOUX LOOKOUT  MOSUNNY   57  43  58 NW12G17   29.68R
TORONTO        MOSUNNY   70  46  43 SE7       30.04R
BIG TROUT LK   CLOUDY    37  36  93 NW12G20   29.59R
PICKLE LAKE    MOSUNNY   52  41  66 W10       29.62R
DRYDEN         SUNNY     55  43  62 W15       29.70R
KENORA         PTSUNNY   54  37  54 NW9       29.75R
$$
                *** MANITOBA***

CITY           SKY/WX    TMP DP  RH WIND       PRES   REMARKS
BRANDON        MOSUNNY   52  36  54 NW25G32   29.88R
DAUPHIN        LGT RAIN  48  41  76 NW16G24   29.84R
ISLAND LAKE    CLOUDY    36  34  93 N9        29.71R
PILOT MOUND      N/A     54  36  50 W15G24      N/A
THE PAS        CLOUDY    36  34  93 NW12      29.83R
THOMPSON       CLOUDY    32  27  80 N9        29.81R WCI  24
WINNIPEG       MOSUNNY   57  37  47 W24       29.81R
LYNN LAKE      CLOUDY    28  25  86 N6        29.86R WCI  22
CHURCHILL      CLOUDY    23  21  93 N15G21    29.82R WCI  10
GILLAM         CLOUDY    27  21  80 N13       29.79R WCI  16
$$
                ***SASKATCHEWAN***

CITY           SKY/WX    TMP DP  RH WIND       PRES   REMARKS
ESTEVAN        MOSUNNY   48  34  57 NW18      29.99R
KINDERSLEY     MOSUNNY   43  34  70 NW6       30.05R
LLOYDMINSTER   PTSUNNY   41  36  81 NW7       30.02R
PRINCE ALBERT  MOSUNNY   46  37  71 NW8       29.96R
REGINA         MOSUNNY   45  37  76 NW17      29.99R
YORKTON        SUNNY     48  37  66 NW18G28   29.89R
N. BATTLEFORD  MOSUNNY   43  37  81 NW7       30.04R
LA RONGE       PTSUNNY   43  37  81 W8        29.92R
SASKATOON      MOSUNNY   45  37  76 W6        30.01R
SWIFT CURRENT  SUNNY     41  32  70 W12       30.04R
$$
NOTE: THESE ARE AUTOMATED STATIONS WITH LIMITED QUALITY CONTROL
      "FAIR" INDICATES FEW OR NO CLOUDS BELOW 12,000 FEET WITH NO
      SIGNIFICANT WEATHER AND/OR OBSTRUCTIONS TO VISIBILITY.
      SKY/WX - SKY CONDITION AND SIGNIFICANT WEATHER.
      TMP - AIR TEMPERATURE.    DP   - DEWPOINT TEMPERATURE.
      RH  - RELATIVE HUMIDITY.  PRES - PRESSURE.
      HX  - HEAT INDEX.         WCI  - WIND CHILL INDEX.
$



USA.gov is the U.S. government's official web portal to all federal, state and local government web resources and services.